Location: Deurze
(52.9838°N, 6.6090°E)
Time: 18:06:38
(UTC+00:00)

Cosmos 2263 Rocket - Pass Details

Date: 11 March 2026
Orbit: 823 x 846 km, 71.0° (Epoch: 20 April)

Event Time Altitude Azimuth Distance (km) Brightness Sun altitude
Rises 19:42:47 0° 320° (NW) 3,412 6.4 -20.3°
Reaches altitude 10° 19:46:27 10° 343° (NNW) 2,472 5.1 -20.8°
Maximum altitude 19:49:35 15° 17° (NNE) 2,141 4.4 -21.3°
Enters shadow 19:52:18 11° 47° (NE) 2,386 4.3 -21.6°
